| time (UTC) | temp F | wind direction | speed knots | gust knots | rain 1hr in | rain 24hr in | rain mn in | humidity % | barometer mb |
| 20260504185558 | 76 | 170 | 6.1 | 13.9 | 0.00 | 0.00 | 0.00 | 41 | 1010.1 |
| 20260504185059 | 76 | 194 | 13.0 | 13.9 | 0.00 | 0.00 | 0.00 | 41 | 1010.1 |
| 20260504184558 | 77 | 182 | 7.8 | 13.0 | 0.00 | 0.00 | 0.00 | 40 | 1010.4 |
| 20260504184058 | 76 | 253 | 1.7 | 13.0 | 0.00 | 0.00 | 0.00 | 40 | 1010.8 |
| 20260504183558 | 76 | 253 | 1.7 | 13.0 | 0.00 | 0.00 | 0.00 | 40 | 1010.4 |
| 20260504183059 | 76 | 186 | 10.4 | 13.0 | 0.00 | 0.00 | 0.00 | 41 | 1010.8 |
| 20260504182559 | 76 | 186 | 10.4 | 14.8 | 0.00 | 0.00 | 0.00 | 41 | 1010.8 |
| 20260504181558 | 75 | 227 | 9.6 | 14.8 | 0.00 | 0.00 | 0.00 | 42 | 1010.8 |
| 20260504181058 | 75 | 227 | 9.6 | 17.4 | 0.00 | 0.00 | 0.00 | 42 | 1010.8 |
| 20260504180559 | 76 | 229 | 15.6 | 17.4 | 0.00 | 0.00 | 0.00 | 42 | 1010.8 |
| 20260504180059 | 76 | 229 | 15.6 | 17.4 | 0.00 | 0.00 | 0.00 | 42 | 1010.8 |
| 20260504175558 | 76 | 229 | 15.6 | 17.4 | 0.00 | 0.00 | 0.00 | 42 | 1010.8 |
| 20260504175059 | 75 | 194 | 8.7 | 16.5 | 0.00 | 0.00 | 0.00 | 43 | 1011.1 |
| 20260504174559 | 75 | 212 | 11.3 | 18.2 | 0.00 | 0.00 | 0.00 | 44 | 1010.8 |
| 20260504174059 | 75 | 212 | 11.3 | 18.2 | 0.00 | 0.00 | 0.00 | 44 | 1011.1 |
| 20260504173558 | 76 | 179 | 15.6 | 18.2 | 0.00 | 0.00 | 0.00 | 43 | 1010.8 |
| 20260504173058 | 74 | 204 | 9.6 | 15.6 | 0.00 | 0.00 | 0.00 | 44 | 1011.5 |
| 20260504172559 | 74 | 183 | 13.0 | 15.6 | 0.00 | 0.00 | 0.00 | 44 | 1011.1 |
| 20260504172058 | 74 | 183 | 13.0 | 17.4 | 0.00 | 0.00 | 0.00 | 44 | 1011.5 |
| 20260504171558 | 74 | 183 | 13.0 | 17.4 | 0.00 | 0.00 | 0.00 | 44 | 1011.5 |
| 20260504171058 | 74 | 240 | 7.8 | 17.4 | 0.00 | 0.00 | 0.00 | 44 | 1011.5 |
| 20260504170558 | 74 | 127 | 3.5 | 17.4 | 0.00 | 0.00 | 0.00 | 45 | 1011.8 |
| 20260504151058 | 69 | 164 | 7.8 | 13.0 | 0.00 | 0.00 | 0.00 | 52 | 1012.8 |
| 20260504150558 | 68 | 160 | 6.1 | 15.6 | 0.00 | 0.00 | 0.00 | 52 | 1012.8 |
| 20260504140842 | 66 | 213 | 6.1 | 14.8 | 0.00 | 0.00 | 0.00 | 56 | 1013.2 |
| 20260504140342 | 66 | 213 | 6.1 | 14.8 | 0.00 | 0.00 | 0.00 | 56 | 1012.8 |
| 20260504130800 | 61 | 178 | 5.2 | 7.8 | 0.00 | 0.00 | 0.00 | 62 | 1013.2 |
| 20260504130300 | 60 | 166 | 4.3 | 8.7 | 0.00 | 0.00 | 0.00 | 62 | 1013.2 |
| 20260504120300 | 57 | 125 | 2.6 | 7.8 | 0.00 | 0.00 | 0.00 | 63 | 1012.8 |
| 20260504110300 | 56 | 165 | 5.2 | 7.0 | 0.00 | 0.00 | 0.00 | 63 | 1012.5 |
| 20260504100300 | 57 | 157 | 3.5 | 6.1 | 0.00 | 0.00 | 0.00 | 62 | 1012.5 |
| 20260504081800 | 58 | 165 | 7.0 | 8.7 | 0.00 | 0.00 | 0.00 | 59 | 1012.1 |
| 20260504081300 | 58 | 170 | 2.6 | 7.8 | 0.00 | 0.00 | 0.00 | 59 | 1012.1 |
| 20260504080800 | 58 | 147 | 6.1 | 7.8 | 0.00 | 0.00 | 0.00 | 59 | 1012.1 |
| 20260504080300 | 58 | 151 | 4.3 | 7.8 | 0.00 | 0.00 | 0.00 | 59 | 1012.5 |
| 20260504070300 | 57 | 175 | 8.7 | 11.3 | 0.00 | 0.00 | 0.00 | 59 | 1013.2 |
| 20260504050300 | 58 | 177 | 4.3 | 8.7 | 0.00 | 0.00 | 0.00 | 58 | 1013.9 |
| 20260504045800 | 58 | 177 | 4.3 | 9.6 | 0.00 | 0.00 | 0.00 | 58 | 1013.9 |
| 20260504045259 | 58 | 181 | 2.6 | 9.6 | 0.00 | 0.00 | 0.00 | 58 | 1013.9 |
| 20260504044800 | 58 | 184 | 4.3 | 7.8 | 0.00 | 0.00 | 0.00 | 57 | 1013.9 |
| 20260504044300 | 58 | 184 | 4.3 | 7.8 | 0.00 | 0.00 | 0.00 | 57 | 1014.2 |
| 20260504043800 | 58 | 182 | 4.3 | 7.8 | 0.00 | 0.00 | 0.00 | 57 | 1014.2 |
| 20260504043300 | 58 | 183 | 5.2 | 7.8 | 0.00 | 0.00 | 0.00 | 57 | 1014.2 |
| 20260504042800 | 58 | 183 | 5.2 | 7.8 | 0.00 | 0.00 | 0.00 | 57 | 1014.2 |
| 20260504042300 | 58 | 167 | 6.1 | 7.0 | 0.00 | 0.00 | 0.00 | 58 | 1014.2 |
| 20260504041800 | 58 | 181 | 5.2 | 7.0 | 0.00 | 0.00 | 0.00 | 58 | 1014.2 |
| 20260504041300 | 58 | 181 | 5.2 | 7.0 | 0.00 | 0.00 | 0.00 | 58 | 1014.6 |
| 20260504040759 | 58 | 182 | 4.3 | 6.1 | 0.00 | 0.00 | 0.00 | 58 | 1014.2 |
| 20260504040300 | 58 | 181 | 4.3 | 5.2 | 0.00 | 0.00 | 0.00 | 59 | 1013.9 |
| 20260504035800 | 59 | 188 | 3.5 | 7.8 | 0.00 | 0.00 | 0.00 | 56 | 1014.2 |
| 20260504035300 | 59 | 173 | 7.0 | 7.8 | 0.00 | 0.00 | 0.00 | 56 | 1014.6 |
| 20260504034800 | 59 | 181 | 4.3 | 7.0 | 0.00 | 0.00 | 0.00 | 55 | 1014.2 |
| 20260504034300 | 60 | 166 | 5.2 | 7.0 | 0.00 | 0.00 | 0.00 | 56 | 1014.2 |
| 20260504033800 | 60 | 166 | 5.2 | 7.8 | 0.00 | 0.00 | 0.00 | 56 | 1014.6 |
| 20260504033300 | 60 | 166 | 5.2 | 7.8 | 0.00 | 0.00 | 0.00 | 56 | 1014.2 |
| 20260504032759 | 60 | 167 | 7.8 | 7.8 | 0.00 | 0.00 | 0.00 | 54 | 1014.6 |
| 20260504032300 | 60 | 167 | 7.8 | 7.8 | 0.00 | 0.00 | 0.00 | 54 | 1014.2 |
| 20260504031800 | 60 | 159 | 7.8 | 8.7 | 0.00 | 0.00 | 0.00 | 53 | 1014.6 |
| 20260504031300 | 60 | 159 | 7.0 | 8.7 | 0.00 | 0.00 | 0.00 | 52 | 1014.2 |
| 20260504030800 | 60 | 148 | 7.0 | 8.7 | 0.00 | 0.00 | 0.00 | 52 | 1014.2 |
| 20260504030300 | 61 | 160 | 7.0 | 7.8 | 0.00 | 0.00 | 0.00 | 50 | 1014.6 |
| 20260504025800 | 62 | 163 | 7.0 | 7.8 | 0.00 | 0.00 | 0.00 | 50 | 1014.6 |
| 20260504025300 | 62 | 156 | 6.1 | 6.1 | 0.00 | 0.00 | 0.00 | 48 | 1014.6 |
| 20260504024759 | 62 | 156 | 6.1 | 7.0 | 0.00 | 0.00 | 0.00 | 48 | 1014.6 |
| 20260504024300 | 62 | 162 | 6.1 | 7.0 | 0.00 | 0.00 | 0.00 | 48 | 1014.2 |
| 20260504023800 | 62 | 167 | 6.1 | 7.0 | 0.00 | 0.00 | 0.00 | 49 | 1014.6 |
| 20260504023300 | 62 | 136 | 4.3 | 7.0 | 0.00 | 0.00 | 0.00 | 49 | 1014.6 |
| 20260504022800 | 62 | 154 | 5.2 | 7.0 | 0.00 | 0.00 | 0.00 | 49 | 1014.6 |
| 20260504022300 | 62 | 158 | 5.2 | 7.0 | 0.00 | 0.00 | 0.00 | 49 | 1014.6 |
| 20260504021800 | 63 | 178 | 2.6 | 7.0 | 0.00 | 0.00 | 0.00 | 48 | 1014.6 |
| 20260504021300 | 63 | 178 | 5.2 | 7.0 | 0.00 | 0.00 | 0.00 | 48 | 1014.6 |
| 20260504020800 | 63 | 198 | 2.6 | 7.0 | 0.00 | 0.00 | 0.00 | 47 | 1014.6 |
| 20260504020300 | 63 | 193 | 2.6 | 7.0 | 0.00 | 0.00 | 0.00 | 47 | 1014.6 |
| 20260504015800 | 63 | 179 | 4.3 | 6.1 | 0.00 | 0.00 | 0.00 | 46 | 1014.6 |
| 20260504015259 | 64 | 180 | 5.2 | 7.0 | 0.00 | 0.00 | 0.00 | 46 | 1014.2 |
| 20260504014800 | 64 | 171 | 5.2 | 7.0 | 0.00 | 0.00 | 0.00 | 46 | 1014.2 |
| 20260504014300 | 63 | 174 | 5.2 | 7.0 | 0.00 | 0.00 | 0.00 | 46 | 1014.2 |
| 20260504013800 | 64 | 182 | 6.1 | 6.1 | 0.00 | 0.00 | 0.00 | 46 | 1013.9 |
| 20260504013300 | 64 | 182 | 6.1 | 6.1 | 0.00 | 0.00 | 0.00 | 46 | 1014.2 |
| 20260504012759 | 64 | 178 | 5.2 | 6.1 | 0.00 | 0.00 | 0.00 | 46 | 1013.9 |
| 20260504012300 | 64 | 176 | 4.3 | 6.1 | 0.00 | 0.00 | 0.00 | 46 | 1013.9 |
| 20260504011759 | 64 | 164 | 4.3 | 6.1 | 0.00 | 0.00 | 0.00 | 46 | 1013.9 |
| 20260504011300 | 64 | 180 | 4.3 | 6.1 | 0.00 | 0.00 | 0.00 | 46 | 1013.9 |
| 20260504010800 | 64 | 173 | 4.3 | 7.0 | 0.00 | 0.00 | 0.00 | 45 | 1013.9 |
| 20260504010300 | 64 | 179 | 3.5 | 7.0 | 0.00 | 0.00 | 0.00 | 45 | 1013.5 |
| 20260504005800 | 64 | 183 | 3.5 | 7.0 | 0.00 | 0.00 | 0.00 | 45 | 1013.5 |
| 20260504005300 | 65 | 175 | 4.3 | 7.0 | 0.00 | 0.00 | 0.00 | 45 | 1013.5 |
| 20260504004800 | 65 | 176 | 5.2 | 6.1 | 0.00 | 0.00 | 0.00 | 44 | 1013.5 |
| 20260504004300 | 65 | 182 | 4.3 | 7.0 | 0.00 | 0.00 | 0.00 | 44 | 1013.5 |
| 20260504003800 | 65 | 180 | 3.5 | 7.8 | 0.00 | 0.00 | 0.00 | 43 | 1013.5 |
| 20260504003300 | 66 | 178 | 4.3 | 7.8 | 0.00 | 0.00 | 0.00 | 42 | 1013.5 |
| 20260504002800 | 66 | 191 | 7.0 | 8.7 | 0.00 | 0.00 | 0.00 | 41 | 1013.5 |
| 20260504002300 | 66 | 189 | 7.0 | 8.7 | 0.00 | 0.00 | 0.00 | 40 | 1013.9 |
| 20260504001800 | 67 | 191 | 7.0 | 8.7 | 0.00 | 0.00 | 0.00 | 39 | 1013.5 |
| 20260504001300 | 67 | 191 | 7.0 | 8.7 | 0.00 | 0.00 | 0.00 | 39 | 1013.5 |
| 20260504000759 | 67 | 210 | 4.3 | 8.7 | 0.00 | 0.00 | 0.00 | 39 | 1013.9 |
| 20260504000300 | 67 | 165 | 5.2 | 8.7 | 0.00 | 0.00 | 0.00 | 38 | 1014.2 |
| 20260503235800 | 68 | 175 | 5.2 | 7.8 | 0.00 | 0.00 | 0.00 | 38 | 1013.9 |
| 20260503235300 | 67 | 39 | 2.6 | 7.8 | 0.00 | 0.00 | 0.00 | 38 | 1013.9 |
| 20260503234800 | 68 | 192 | 5.2 | 9.6 | 0.00 | 0.00 | 0.00 | 37 | 1013.9 |
| 20260503234300 | 68 | 179 | 3.5 | 9.6 | 0.00 | 0.00 | 0.00 | 37 | 1014.2 |
| 20260503233800 | 68 | 226 | 4.3 | 7.8 | 0.00 | 0.00 | 0.00 | 37 | 1014.2 |
| 20260503233300 | 68 | 147 | 1.7 | 7.8 | 0.00 | 0.00 | 0.00 | 36 | 1014.2 |
| 20260503232759 | 68 | 135 | 2.6 | 7.8 | 0.00 | 0.00 | 0.00 | 36 | 1014.2 |
| 20260503232300 | 69 | 130 | 4.3 | 7.8 | 0.00 | 0.00 | 0.00 | 35 | 1014.2 |
| 20260503231759 | 69 | 118 | 1.7 | 7.8 | 0.00 | 0.00 | 0.00 | 36 | 1014.2 |
| 20260503231300 | 69 | 220 | 7.8 | 10.4 | 0.00 | 0.00 | 0.00 | 35 | 1014.2 |
| 20260503230759 | 68 | 14 | 1.7 | 10.4 | 0.00 | 0.00 | 0.00 | 36 | 1014.2 |
| 20260503230300 | 68 | 17 | 0.9 | 13.0 | 0.00 | 0.00 | 0.00 | 35 | 1014.2 |
| 20260503225800 | 68 | 216 | 7.8 | 13.0 | 0.00 | 0.00 | 0.00 | 35 | 1014.2 |
| 20260503225259 | 69 | 353 | 2.6 | 14.8 | 0.00 | 0.00 | 0.00 | 34 | 1014.2 |
| 20260503224800 | 69 | 197 | 7.8 | 14.8 | 0.00 | 0.00 | 0.00 | 35 | 1014.2 |
| 20260503224300 | 69 | 216 | 4.3 | 7.8 | 0.00 | 0.00 | 0.00 | 34 | 1014.6 |
| 20260503223800 | 69 | 154 | 2.6 | 10.4 | 0.00 | 0.00 | 0.00 | 34 | 1014.6 |
| 20260503223300 | 68 | 185 | 7.0 | 10.4 | 0.00 | 0.00 | 0.00 | 34 | 1014.6 |
| 20260503222800 | 69 | 225 | 6.1 | 8.7 | 0.00 | 0.00 | 0.00 | 33 | 1014.6 |
| 20260503222300 | 69 | 248 | 6.1 | 9.6 | 0.00 | 0.00 | 0.00 | 33 | 1014.6 |
| 20260503221759 | 69 | 188 | 5.2 | 9.6 | 0.00 | 0.00 | 0.00 | 33 | 1014.6 |
| 20260503221300 | 69 | 253 | 8.7 | 9.6 | 0.00 | 0.00 | 0.00 | 33 | 1014.6 |
| 20260503220759 | 69 | 97 | 2.6 | 10.4 | 0.00 | 0.00 | 0.00 | 33 | 1014.6 |
| 20260503220300 | 69 | 197 | 5.2 | 10.4 | 0.00 | 0.00 | 0.00 | 32 | 1014.6 |
| 20260503215759 | 69 | 209 | 4.3 | 10.4 | 0.00 | 0.00 | 0.00 | 34 | 1014.6 |
| 20260503215300 | 68 | 220 | 6.1 | 9.6 | 0.00 | 0.00 | 0.00 | 33 | 1014.6 |
| 20260503214759 | 69 | 188 | 6.1 | 9.6 | 0.00 | 0.00 | 0.00 | 33 | 1014.9 |
| 20260503214300 | 68 | 199 | 1.7 | 13.0 | 0.00 | 0.00 | 0.00 | 33 | 1014.9 |
| 20260503213759 | 68 | 158 | 4.3 | 13.0 | 0.00 | 0.00 | 0.00 | 33 | 1015.3 |
| 20260503213300 | 68 | 33 | 0.9 | 10.4 | 0.00 | 0.00 | 0.00 | 33 | 1014.9 |
| 20260503212800 | 68 | 262 | 6.1 | 10.4 | 0.00 | 0.00 | 0.00 | 33 | 1015.3 |
| 20260503212300 | 68 | 243 | 7.0 | 10.4 | 0.00 | 0.00 | 0.00 | 32 | 1014.9 |
| 20260503211800 | 68 | 164 | 6.1 | 9.6 | 0.00 | 0.00 | 0.00 | 34 | 1015.3 |
| 20260503211300 | 68 | 220 | 7.8 | 9.6 | 0.00 | 0.00 | 0.00 | 33 | 1015.3 |
| 20260503210800 | 68 | 190 | 6.1 | 9.6 | 0.00 | 0.00 | 0.00 | 32 | 1015.3 |
| 20260503210300 | 69 | 261 | 6.1 | 12.2 | 0.00 | 0.00 | 0.00 | 32 | 1015.3 |
| 20260503205800 | 68 | 195 | 4.3 | 12.2 | 0.00 | 0.00 | 0.00 | 33 | 1015.3 |
| 20260503205300 | 69 | 291 | 4.3 | 9.6 | 0.00 | 0.00 | 0.00 | 32 | 1015.6 |
| 20260503204800 | 68 | 134 | 2.6 | 9.6 | 0.00 | 0.00 | 0.00 | 32 | 1015.6 |
| 20260503204300 | 68 | 61 | 6.1 | 15.6 | 0.00 | 0.00 | 0.00 | 32 | 1015.6 |
| 20260503203800 | 67 | 212 | 3.5 | 15.6 | 0.00 | 0.00 | 0.00 | 33 | 1015.6 |
| 20260503203300 | 67 | 189 | 10.4 | 15.6 | 0.00 | 0.00 | 0.00 | 33 | 1015.6 |
| 20260503202800 | 67 | 236 | 7.0 | 9.6 | 0.00 | 0.00 | 0.00 | 33 | 1015.6 |
| 20260503202300 | 67 | 234 | 4.3 | 11.3 | 0.00 | 0.00 | 0.00 | 33 | 1015.9 |
| 20260503201759 | 67 | 234 | 4.3 | 11.3 | 0.00 | 0.00 | 0.00 | 33 | 1016.3 |
| 20260503201259 | 67 | 183 | 5.2 | 7.8 | 0.00 | 0.00 | 0.00 | 33 | 1016.3 |
| 20260503200800 | 68 | 81 | 3.5 | 5.2 | 0.00 | 0.00 | 0.00 | 32 | 1016.3 |
| 20260503200300 | 68 | 81 | 3.5 | 9.6 | 0.00 | 0.00 | 0.00 | 32 | 1016.3 |
| 20260503195800 | 67 | 320 | 2.6 | 9.6 | 0.00 | 0.00 | 0.00 | 33 | 1016.6 |
| 20260503195300 | 67 | 254 | 6.1 | 9.6 | 0.00 | 0.00 | 0.00 | 33 | 1017.0 |
| 20260503194800 | 67 | 276 | 1.7 | 11.3 | 0.00 | 0.00 | 0.00 | 33 | 1016.6 |
| 20260503194259 | 66 | 157 | 7.8 | 11.3 | 0.00 | 0.00 | 0.00 | 34 | 1016.6 |
| 20260503193759 | 65 | 183 | 5.2 | 11.3 | 0.00 | 0.00 | 0.00 | 35 | 1016.6 |
| 20260503193300 | 65 | 219 | 1.7 | 6.1 | 0.00 | 0.00 | 0.00 | 35 | 1017.0 |
| 20260503192800 | 65 | 335 | 0.0 | 13.0 | 0.00 | 0.00 | 0.00 | 34 | 1017.3 |
| 20260503192300 | 65 | 335 | 0.0 | 13.9 | 0.00 | 0.00 | 0.00 | 34 | 1017.3 |
| 20260503191800 | 65 | 203 | 9.6 | 13.9 | 0.00 | 0.00 | 0.00 | 34 | 1017.7 |
| 20260503191259 | 64 | 296 | 6.1 | 12.2 | 0.00 | 0.00 | 0.00 | 36 | 1017.7 |
| 20260503190800 | 65 | 243 | 8.7 | 10.4 | 0.00 | 0.00 | 0.00 | 34 | 1017.3 |
| 20260503190300 | 65 | 243 | 8.7 | 10.4 | 0.00 | 0.00 | 0.00 | 34 | 1017.7 |